User: anonymous   Login
Location: Theydon Bois
(51.6750°N, 0.1050°E)
Time: 21:47:12
(UTC+00:00)
Language:

Meteor 1-16 Rocket - Orbit

View from above orbital plane
View from above orbital plane
View from above satellite
View from above satellite

Ground track
Ground track

The orbit data is extracted from the following two-line orbital elements,

1 07210U 74011B   18055.77938930 -.00000148  00000-0 -83550-4 0  9998
2 07210  81.2393 160.2358 0081200  20.3019 340.1349 14.13050706265643
Epoch (UTC): 24 February 2018 18:42:19
Eccentricity: 0.0081200
inclination: 81.2393°
perigee height: 790 km
apogee height: 907 km
right ascension of ascending node: 160.2358°
argument of perigee: 20.3019°
revolutions per day: 14.13050706
mean anomaly at epoch: 340.1349°
orbit number at epoch: 26564

The dashed part of the orbit path shows where the satellite is in the earth's shadow,  

DLR